Content
SEND FEEDBACK

Daily
Averages
Monthly
Summary
United States of America

SOUTHPORT, NORTH CAROLINA


Home > North America > United States > North Carolina
Elevation: 38 feet     Latitude: 34 00N     Longitude: 078 01W

WEATHER
 
SELECT A DAY
Number of Records: 136,443;   Date Range: 8/21/01 - 7/29/14
 
SHARE

PRINT THIS DATA

[ ← Previous Day ]
WEATHER ALMANAC - JANUARY 17, 2013
[ Next Day → ]
[ °C ]   °F
Weather ElementAverageHighLow
Temperature61.5 °F71.2 °F (11:15 am)47.3 °F (10:55 pm)
Dewpoint57.2 °F63.5 °F (2:55 pm)41.4 °F (10:55 pm)
Humidity86.5 %99 % (12:35 am)59 % (11:15 am)
Barometer29.93 in30.00 in (7:55 am)29.77 in (6:35 pm)
Wind Speed7.2 mph19.6 mph (10:55 pm)
Wind Gust26.5 mph (10:15 pm)
Weather ElementAverage
Visibility8.8 mi
Wind DirectionSSW (205.1 °)

Weather ElementTotal
Precipitation0.14 in
Heating Degree Days5.8 (Base 65)
Growing Degree Days9.3 (Base 50)
Averaged from 57 records on January 17, 2013
WEATHER CONDITIONS BREAKOUT
WIND DIRECTION BREAKOUT
WEATHER BY HOUR - JANUARY 17, 2013
[ °C ]   °F
Local TimeTemperatureDewpointHumidityBarometerVisibilityWind DirectionWind SpeedGust SpeedPrecipitationEventsConditions
12:35 AM55.6 °F55.2 °F99 %29.99 in0.5 miCalmFogFog
12:55 AM55.9 °F55.6 °F99 %29.99 in1.5 miCalmMist
1:15 AM56.3 °F56.1 °F99 %29.99 in0.5 miCalmFogFog
1:35 AM57.9 °F57.7 °F99 %29.99 in7.0 miSW (220°)3.5 mphClear
1:55 AM59.0 °F58.1 °F97 %29.99 in7.0 miSW (230°)3.5 mphClear
2:15 AM59.4 °F58.5 °F97 %29.99 in7.0 miSSW (210°)3.5 mphClear
2:35 AM59.2 °F58.1 °F96 %29.99 in7.0 miSW (230°)4.6 mphClear
2:55 AM59.7 °F58.5 °F96 %29.98 in10.0 miSW (220°)6.9 mphClear
3:15 AM60.8 °F59.0 °F94 %29.98 in10.0 miSW (220°)5.8 mphClear
3:35 AM59.9 °F58.1 °F94 %29.98 in10.0 miSW (220°)4.6 mphClear
4:35 AM58.5 °F57.4 °F96 %29.97 in10.0 miSW (230°)5.8 mphClear
4:55 AM58.3 °F57.2 °F96 %29.97 in10.0 miSW (230°)5.8 mphClear
5:15 AM58.3 °F56.8 °F95 %29.97 in10.0 miSW (230°)5.8 mphClear
5:35 AM58.1 °F56.8 °F96 %29.97 in10.0 miWSW (240°)6.9 mphClear
5:55 AM58.1 °F56.8 °F96 %29.97 in10.0 miSW (230°)5.8 mphClear
6:15 AM58.1 °F56.8 °F96 %29.98 in10.0 miSW (230°)6.9 mphClear
6:35 AM58.3 °F56.8 °F95 %29.98 in10.0 miSW (230°)6.9 mphClear
6:55 AM58.1 °F56.7 °F95 %29.98 in7.0 miWSW (240°)5.8 mphScattered Clouds
7:15 AM58.1 °F56.7 °F95 %29.99 in7.0 miSW (230°)6.9 mphScattered Clouds
7:35 AM57.6 °F56.5 °F96 %29.99 in7.0 miWSW (240°)5.8 mphClear
7:55 AM58.3 °F57.2 °F96 %30.00 in7.0 miSW (230°)6.9 mphClear
8:15 AM59.0 °F57.4 °F94 %30.00 in7.0 miWSW (240°)8.1 mphClear
8:35 AM60.3 °F58.1 °F93 %30.00 in10.0 miWSW (240°)9.2 mphClear
8:55 AM61.9 °F58.3 °F88 %30.00 in10.0 miSW (230°)9.2 mphClear
9:15 AM62.6 °F58.5 °F86 %30.00 in10.0 miWSW (240°)11.5 mphScattered Clouds
9:35 AM64.4 °F58.1 °F80 %30.00 in10.0 miWSW (250°)10.4 mphScattered Clouds
9:55 AM65.5 °F57.7 °F76 %29.99 in10.0 miWSW (250°)8.1 mphClear
10:15 AM67.6 °F57.4 °F70 %29.98 in10.0 miWSW (250°)8.1 mphClear
10:35 AM69.3 °F57.2 °F65 %29.97 in10.0 miWest (260°)10.4 mph16.1 mphClear
10:55 AM70.7 °F56.7 °F61 %29.96 in10.0 miWSW (250°)8.1 mphClear
11:15 AM71.2 °F56.3 °F59 %29.95 in10.0 miWest (260°)10.4 mphClear
11:35 AM70.9 °F56.3 °F60 %29.94 in10.0 miSW (220°)8.1 mphClear
11:55 AM68.4 °F56.7 °F66 %29.93 in10.0 miSW (230°)9.2 mphClear
12:15 PM66.7 °F57.4 °F72 %29.92 in10.0 miSouth (190°)5.8 mphClear
12:35 PM66.7 °F57.9 °F73 %29.91 in10.0 miSW (220°)5.8 mphClear
12:55 PM68.7 °F58.8 °F71 %29.89 in10.0 miSouth (190°)4.6 mphClear
1:15 PM68.5 °F60.6 °F76 %29.88 in10.0 miSSW (200°)5.8 mphClear
1:35 PM68.5 °F61.0 °F77 %29.87 in10.0 miSouth (170°)4.6 mphClear
1:55 PM68.5 °F61.5 °F78 %29.86 in10.0 miSouth (190°)5.8 mphClear
2:15 PM69.1 °F62.4 °F79 %29.85 in10.0 miSouth (170°)8.1 mphClear
2:35 PM69.6 °F63.3 °F80 %29.85 in10.0 miSouth (170°)8.1 mphClear
2:55 PM69.1 °F63.5 °F82 %29.83 in10.0 miSSE (150°)5.8 mphClear
3:15 PM67.6 °F63.3 °F86 %29.83 in10.0 miSSE (150°)5.8 mphScattered Clouds
3:35 PM67.6 °F62.6 °F84 %29.82 in10.0 miSE (130°)5.8 mphScattered Clouds
3:55 PM67.1 °F62.6 °F85 %29.82 in10.0 miSE (140°)3.5 mphMostly Cloudy
4:15 PM65.8 °F62.4 °F89 %29.80 in10.0 miESE (110°)5.8 mphScattered Clouds
4:35 PM65.1 °F63.0 °F93 %29.80 in7.0 miESE (120°)6.9 mphRainRain
4:55 PM64.4 °F63.0 °F95 %29.80 in7.0 miSSE (150°)5.8 mphOvercast
5:55 PM64.0 °F61.7 °F92 %29.80 in10.0 miSouth (180°)5.8 mphScattered Clouds
6:35 PM64.4 °F62.4 °F93 %29.77 in10.0 miSE (130°)3.5 mphClear
8:15 PM55.4 °F53.6 °F94 %29.83 in4.0 miWNW (290°)17.3 mph23.0 mph0.04 inRainRain
8:55 PM52.2 °F50.0 °F92 %29.87 in10.0 miWSW (250°)11.5 mph23.0 mph0.10 inRainLight Rain
9:15 PM52.2 °F49.6 °F91 %29.87 in10.0 miWest (270°)11.5 mph21.9 mphMostly Cloudy
9:55 PM48.6 °F43.9 °F84 %29.91 in10.0 miWest (270°)15.0 mph24.2 mphMostly Cloudy
10:15 PM48.2 °F43.0 °F82 %29.92 in10.0 miWest (270°)15.0 mph26.5 mphOvercast
10:35 PM47.7 °F42.1 °F81 %29.92 in10.0 miWest (270°)12.7 mph24.2 mphMostly Cloudy
10:55 PM47.3 °F41.4 °F80 %29.93 in10.0 miWest (280°)19.6 mph26.5 mphMostly Cloudy
Hourly data recorded from KSUT, located miles away from Southport, North Carolina







STORIES FROM OUR PARTNERS